Location: Frankfurt+am+Main
(50.1100°N, 8.4815°E)
Time: 05:54:29
(UTC+01:00)

ISS - Pass Details

Date: 06 January 2018
Orbit: 402 x 407 km, 51.6° (Epoch: 20 January)

Event Time Altitude Azimuth Distance (km) Brightness Sun altitude
Exits shadow 05:13:55 15° 75° (ENE) 1,219 -0.7 -29.4°
Drops below altitude 10° 05:14:32 10° 75° (ENE) 1,470 -0.1 -29.3°
Sets 05:16:37 0° 75° (ENE) 2,333 1.1 -29.0°
